Zurück zum Katalog

COSMOS 2534

GLONASS

AktivNavigationMEO
NORAD 44299·PAYLOAD·🇷🇺 Russia

Gestartet May 27, 2019 von Plesetsk Cosmodrome

Loading…

Nächste Überflüge (nächste 24 Stunden)

TLE

AktuellSource: CelesTrak SupGP

Epoche: Sep 13, 2026, 23:59 UTC

1 44299C 19030A   26256.99979167  .00000000  00000+0  00000+0 0  2563
2 44299  64.3695 189.6285 0011542 276.4502 316.7894  2.13102256    12

Verfolge COSMOS 2534 in Echtzeit mit AllMySat

Download on the App Store